Arlington, TX

6:21 AM CDT on September 25, 2016 (GMT -0500)
Arlington Municipal

Weather History for KGKY - March, 2014

Change the Weather History Date:

Saturday, March 8, 2014

  Actual Average (KRBD) Record (KRBD)
Temperature  
Mean Temperature 47 °F -  
Max Temperature 55 °F 61 °F 82 °F (2009)
Min Temperature 39 °F 42 °F 24 °F (2008)
Degree Days  
Heating Degree Days 18    
Moisture  
Dew Point 40 °F    
Average Humidity 75    
Maximum Humidity 94    
Minimum Humidity 62    
Precipitation  
Precipitation 0.00 in - - ()
Sea Level Pressure  
Sea Level Pressure 30.12 in    
Wind  
Wind Speed 11 mph (WNW)    
Max Wind Speed 21 mph    
Max Gust Speed 26 mph    
Visibility 9 miles    
Events Rain    
Averages and records for this station are not official NWS values.
T = Trace of Precipitation, MM = Missing Value Source: NWS Daily Summary

Daily Weather History Graph

Daily Weather History Graph

Search for Another Location

Airport or City:

Trip Planner

Search our weather history database for the weather conditions in past years. The results will help you decide how hot, cold, wet, or windy it might be!

Date:

Astronomy

Mar. 08, 2014 Rise Set
Actual Time 6:47 AM CST 6:31 PM CST
Civil Twilight 6:22 AM CST 6:55 PM CST
Nautical Twilight 5:54 AM CST 7:24 PM CST
Astronomical Twilight 5:25 AM CST 7:52 PM CST
Moon 11:50 AM CST (3/8) 1:10 AM CST (3/8)
Length of Visible Light 12h 32m
Length of Day
11h 43m
First Quarter, 52% of the Moon is Illuminated
Mar 8
First Quarter
Mar 16
Full
Mar 23
Last Quarter
Mar 30
New
Apr 7
First Quarter

Hourly Weather History & Observations

Time (CST) Temp. Windchill Dew Point Humidity Pressure Visibility Wind Dir Wind Speed Gust Speed Precip Events Conditions
12:53 AM 54.0 °F - 46.0 °F 75% 29.86 in 10.0 mi South 10.4 mph 17.3 mph N/A   Clear
1:53 AM 53.1 °F - 46.9 °F 80% 29.86 in 10.0 mi SSE 9.2 mph - N/A   Clear
2:37 AM 53.6 °F - 48.2 °F 82% 29.90 in 10.0 mi Calm Calm - N/A   Mostly Cloudy
2:53 AM 53.1 °F - 48.0 °F 83% 29.90 in 10.0 mi SE 3.5 mph - N/A   Overcast
3:53 AM 53.1 °F - 48.9 °F 86% 29.91 in 10.0 mi SE 4.6 mph - N/A   Overcast
4:53 AM 55.0 °F - 50.0 °F 83% 29.91 in 10.0 mi SSE 9.2 mph - N/A   Overcast
5:44 AM 55.4 °F - 51.8 °F 88% 29.94 in 10.0 mi SSE 12.7 mph - N/A   Overcast
5:53 AM 55.0 °F - 51.1 °F 86% 29.94 in 10.0 mi SSE 13.8 mph - N/A   Mostly Cloudy
6:32 AM 53.6 °F - 51.8 °F 94% 29.96 in 9.0 mi SE 13.8 mph - N/A   Partly Cloudy
6:45 AM 53.6 °F - 51.8 °F 94% 29.96 in 10.0 mi SSE 11.5 mph - N/A   Mostly Cloudy
6:53 AM 54.0 °F - 51.1 °F 90% 29.96 in 9.0 mi SSE 11.5 mph - N/A   Overcast
7:53 AM 55.9 °F - 51.1 °F 84% 30.00 in 9.0 mi South 9.2 mph - N/A   Overcast
8:53 AM 55.0 °F - 48.0 °F 77% 30.04 in 10.0 mi WSW 5.8 mph - N/A   Overcast
9:02 AM 53.6 °F - 46.4 °F 77% 30.06 in 10.0 mi West 9.2 mph - N/A   Overcast
9:22 AM 53.6 °F - 42.8 °F 67% 30.07 in 10.0 mi West 8.1 mph - N/A   Overcast
9:53 AM 52.0 °F - 41.0 °F 66% 30.08 in 10.0 mi West 10.4 mph - N/A   Overcast
10:53 AM 48.9 °F - 37.9 °F 66% 30.12 in 7.0 mi WNW 16.1 mph 20.7 mph N/A   Overcast
11:53 AM 50.0 °F - 37.9 °F 63% 30.12 in 7.0 mi WNW 16.1 mph - 0.00 in   Overcast
12:53 PM 46.9 °F - 36.0 °F 66% 30.14 in 7.0 mi NW 11.5 mph 24.2 mph N/A   Overcast
1:29 PM 46.4 °F 39.8 °F 35.6 °F 66% 30.14 in 6.0 mi NW 16.1 mph 25.3 mph N/A   Haze
1:53 PM 48.0 °F - 37.0 °F 66% 30.13 in 6.0 mi NNW 18.4 mph - N/A   Haze
2:20 PM 48.2 °F - 35.6 °F 62% 30.15 in 7.0 mi NW 16.1 mph 26.5 mph N/A   Overcast
2:53 PM 46.9 °F - 36.0 °F 66% 30.15 in 7.0 mi WNW 17.3 mph 26.5 mph N/A   Overcast
3:53 PM 44.1 °F 36.8 °F 36.0 °F 73% 30.16 in 7.0 mi NNW 16.1 mph 26.5 mph 0.00 in Rain Light Rain
4:53 PM 44.1 °F 35.9 °F 33.1 °F 65% 30.20 in 9.0 mi NW 19.6 mph 25.3 mph 0.00 in   Overcast
5:53 PM 43.0 °F 34.2 °F 32.0 °F 65% 30.22 in 9.0 mi NNW 20.7 mph 26.5 mph N/A   Overcast
6:53 PM 42.1 °F 33.6 °F 32.0 °F 67% 30.22 in 10.0 mi NNW 18.4 mph 24.2 mph N/A   Overcast
7:03 PM 42.8 °F 34.8 °F 32.0 °F 66% 30.22 in 10.0 mi NNW 17.3 mph - N/A   Overcast
7:53 PM 41.0 °F 33.5 °F 35.1 °F 79% 30.25 in 9.0 mi North 13.8 mph - 0.00 in Rain Light Rain
8:16 PM 41.0 °F 34.3 °F 33.8 °F 76% 30.27 in 9.0 mi NNW 11.5 mph - 0.00 in   Mostly Cloudy
8:37 PM 41.0 °F 33.5 °F 33.8 °F 76% 30.29 in 10.0 mi NNW 13.8 mph 18.4 mph 0.00 in   Mostly Cloudy
8:49 PM 41.0 °F 33.9 °F 33.8 °F 76% 30.29 in 10.0 mi NNW 12.7 mph - 0.00 in   Mostly Cloudy
8:53 PM 41.0 °F 33.9 °F 33.1 °F 73% 30.29 in 10.0 mi NNW 12.7 mph - 0.00 in   Scattered Clouds
9:15 PM 41.0 °F 33.5 °F 32.0 °F 70% 30.29 in 10.0 mi NNW 13.8 mph - N/A   Mostly Cloudy
9:23 PM 41.0 °F 33.5 °F 33.8 °F 76% 30.28 in 10.0 mi NNW 13.8 mph - N/A   Scattered Clouds
9:37 PM 39.2 °F 31.6 °F 32.0 °F 75% 30.29 in 10.0 mi NNW 12.7 mph - N/A   Mostly Cloudy
9:53 PM 39.9 °F 31.8 °F 32.0 °F 73% 30.29 in 10.0 mi NNW 15.0 mph 21.9 mph N/A   Mostly Cloudy
10:53 PM 39.0 °F 31.0 °F 32.0 °F 76% 30.32 in 10.0 mi NW 13.8 mph - N/A   Overcast
11:53 PM 39.0 °F 31.8 °F 32.0 °F 76% 30.31 in 10.0 mi NNW 11.5 mph - N/A   Overcast